Time,TemperatureF,DewpointF,PressureIn,WindDirection,WindDirectionDegrees,WindSpeedMPH,WindSpeedGustMPH,Humidity,HourlyPrecipIn,Conditions,Clouds,dailyrainin,SoftwareType,DateUTC
2013-08-03 00:02:00,69.0,68.0,29.91,NE,47,0.0,1.0,96,0.00,,,0.67,,2013-08-03 05:02:00,
2013-08-03 00:12:00,69.0,68.0,29.92,NE,47,0.0,1.0,96,0.00,,,0.67,,2013-08-03 05:12:00,
2013-08-03 00:22:00,69.0,68.0,29.92,NE,47,0.0,1.0,96,0.00,,,0.67,,2013-08-03 05:22:00,
2013-08-03 00:32:00,69.0,68.0,29.92,NE,47,0.0,1.0,97,0.01,,,0.68,,2013-08-03 05:32:00,
2013-08-03 00:52:00,68.0,67.0,29.91,NE,47,0.0,1.0,95,0.01,,,0.68,,2013-08-03 05:52:00,
2013-08-03 01:02:00,67.0,65.0,29.92,NE,36,0.0,3.0,92,0.01,,,0.68,,2013-08-03 06:02:00,
2013-08-03 01:12:00,67.0,65.0,29.92,ENE,60,0.0,3.0,92,0.01,,,0.68,,2013-08-03 06:12:00,
2013-08-03 01:23:00,67.0,65.0,29.92,ENE,60,0.0,3.0,92,0.01,,,0.68,,2013-08-03 06:23:00,
2013-08-03 01:33:00,67.0,65.0,29.92,ENE,60,0.0,0.0,93,0.00,,,0.68,,2013-08-03 06:33:00,
2013-08-03 01:42:00,67.0,66.0,29.92,ENE,60,0.0,0.0,95,0.00,,,0.68,,2013-08-03 06:42:00,
2013-08-03 01:52:00,67.0,66.0,29.92,ENE,60,0.0,0.0,95,0.00,,,0.68,,2013-08-03 06:52:00,
2013-08-03 02:02:00,66.0,65.0,29.92,ENE,60,0.0,0.0,95,0.00,,,0.68,,2013-08-03 07:02:00,
2013-08-03 02:12:00,66.0,65.0,29.92,ENE,60,0.0,0.0,96,0.00,,,0.68,,2013-08-03 07:12:00,
2013-08-03 02:22:00,66.0,65.0,29.92,ENE,60,0.0,0.0,96,0.00,,,0.68,,2013-08-03 07:22:00,
2013-08-03 02:32:00,66.0,65.0,29.93,ENE,60,0.0,0.0,96,0.00,,,0.68,,2013-08-03 07:32:00,
2013-08-03 02:43:00,66.0,65.0,29.93,ENE,60,0.0,0.0,96,0.00,,,0.68,,2013-08-03 07:43:00,
2013-08-03 02:52:00,66.0,65.0,29.93,ENE,60,0.0,0.0,96,0.00,,,0.68,,2013-08-03 07:52:00,
2013-08-03 03:02:00,66.0,65.0,29.93,ENE,60,0.0,0.0,96,0.00,,,0.68,,2013-08-03 08:02:00,
2013-08-03 03:22:00,66.0,65.0,29.93,ENE,60,0.0,0.0,96,0.00,,,0.68,,2013-08-03 08:22:00,
2013-08-03 03:32:00,66.0,65.0,29.94,ENE,60,0.0,2.0,96,0.00,,,0.68,,2013-08-03 08:32:00,
2013-08-03 03:43:00,66.0,65.0,29.93,ENE,60,0.0,2.0,96,0.00,,,0.68,,2013-08-03 08:43:00,
2013-08-03 03:52:00,66.0,65.0,29.93,ENE,60,0.0,2.0,96,0.00,,,0.68,,2013-08-03 08:52:00,
2013-08-03 04:02:00,65.0,64.0,29.93,ENE,60,0.0,0.0,96,0.00,,,0.68,,2013-08-03 09:02:00,
2013-08-03 04:12:00,65.0,64.0,29.93,ENE,60,0.0,2.0,96,0.00,,,0.68,,2013-08-03 09:12:00,
2013-08-03 04:22:00,65.0,64.0,29.93,ENE,60,0.0,2.0,96,0.00,,,0.68,,2013-08-03 09:22:00,
2013-08-03 04:32:00,65.0,64.0,29.93,ENE,60,0.0,0.0,96,0.00,,,0.68,,2013-08-03 09:32:00,
2013-08-03 04:53:00,64.0,63.0,29.92,ENE,60,0.0,0.0,96,0.00,,,0.68,,2013-08-03 09:53:00,
2013-08-03 05:02:00,64.0,63.0,29.92,ENE,60,0.0,0.0,96,0.00,,,0.68,,2013-08-03 10:02:00,
2013-08-03 05:12:00,64.0,63.0,29.93,ENE,60,0.0,0.0,96,0.00,,,0.68,,2013-08-03 10:12:00,
2013-08-03 05:22:00,64.0,63.0,29.93,ENE,60,0.0,0.0,96,0.00,,,0.68,,2013-08-03 10:22:00,
2013-08-03 05:32:00,63.0,62.0,29.93,ENE,60,0.0,1.0,97,0.00,,,0.68,,2013-08-03 10:32:00,
2013-08-03 05:42:00,63.0,62.0,29.93,ENE,60,0.0,0.0,97,0.00,,,0.68,,2013-08-03 10:42:00,
2013-08-03 05:52:00,63.0,62.0,29.93,ENE,60,0.0,0.0,97,0.00,,,0.68,,2013-08-03 10:52:00,
2013-08-03 06:02:00,63.0,62.0,29.93,ENE,60,0.0,0.0,97,0.00,,,0.68,,2013-08-03 11:02:00,
2013-08-03 06:12:00,63.0,62.0,29.95,ENE,60,0.0,0.0,97,0.00,,,0.68,,2013-08-03 11:12:00,
2013-08-03 06:22:00,63.0,62.0,29.95,ENE,60,0.0,0.0,97,0.00,,,0.68,,2013-08-03 11:22:00,
2013-08-03 06:32:00,62.0,61.0,29.95,ENE,60,0.0,1.0,96,0.00,,,0.68,,2013-08-03 11:32:00,
2013-08-03 06:43:00,62.0,61.0,29.95,ENE,60,0.0,2.0,96,0.01,,,0.69,,2013-08-03 11:43:00,
2013-08-03 06:53:00,62.0,61.0,29.95,ENE,60,0.0,2.0,96,0.01,,,0.69,,2013-08-03 11:53:00,
2013-08-03 07:02:00,62.0,61.0,29.95,NNE,32,0.0,4.0,96,0.01,,,0.69,,2013-08-03 12:02:00,
2013-08-03 07:22:00,62.0,61.0,29.96,NNE,28,1.0,3.0,95,0.01,,,0.69,,2013-08-03 12:22:00,
2013-08-03 07:33:00,63.0,61.0,29.96,NNE,28,2.0,5.0,92,0.01,,,0.69,,2013-08-03 12:33:00,
2013-08-03 07:43:00,63.0,61.0,29.96,NNE,28,2.0,5.0,92,0.01,,,0.69,,2013-08-03 12:43:00,
2013-08-03 07:52:00,63.0,61.0,29.96,NNE,28,2.0,5.0,92,0.01,,,0.69,,2013-08-03 12:52:00,
2013-08-03 08:02:00,65.0,61.0,29.97,East,80,2.0,5.0,88,0.00,,,0.69,,2013-08-03 13:02:00,
2013-08-03 08:12:00,66.0,62.0,29.98,NNE,32,1.0,3.0,87,0.00,,,0.69,,2013-08-03 13:12:00,
2013-08-03 08:22:00,66.0,62.0,29.98,NNE,32,1.0,3.0,87,0.00,,,0.69,,2013-08-03 13:22:00,
2013-08-03 08:33:00,67.0,62.0,29.99,NNE,18,2.0,5.0,85,0.00,,,0.69,,2013-08-03 13:33:00,
2013-08-03 08:43:00,68.0,63.0,29.99,North,360,2.0,6.0,84,0.00,,,0.69,,2013-08-03 13:43:00,
2013-08-03 08:52:00,68.0,63.0,29.99,North,360,2.0,6.0,84,0.00,,,0.69,,2013-08-03 13:52:00,
2013-08-03 09:02:00,68.0,62.0,29.99,NE,52,2.0,7.0,82,0.00,,,0.69,,2013-08-03 14:02:00,
2013-08-03 09:12:00,69.0,63.0,29.99,NE,55,2.0,7.0,81,0.00,,,0.69,,2013-08-03 14:12:00,
2013-08-03 09:22:00,69.0,63.0,29.99,NE,55,2.0,7.0,81,0.00,,,0.69,,2013-08-03 14:22:00,
2013-08-03 09:33:00,70.0,63.0,29.98,North,350,3.0,8.0,79,0.00,,,0.69,,2013-08-03 14:33:00,
2013-08-03 09:42:00,71.0,64.0,29.99,NW,322,1.0,8.0,79,0.00,,,0.69,,2013-08-03 14:42:00,
2013-08-03 09:52:00,71.0,64.0,29.99,NW,322,1.0,8.0,79,0.00,,,0.69,,2013-08-03 14:52:00,
2013-08-03 10:02:00,71.0,63.0,29.99,North,5,3.0,6.0,77,0.00,,,0.69,,2013-08-03 15:02:00,
2013-08-03 10:12:00,72.0,64.0,29.99,NE,54,2.0,7.0,77,0.00,,,0.69,,2013-08-03 15:12:00,
2013-08-03 10:23:00,72.0,64.0,29.99,NE,54,2.0,7.0,77,0.00,,,0.69,,2013-08-03 15:23:00,
2013-08-03 10:32:00,73.0,64.0,30.00,ESE,109,2.0,8.0,73,0.00,,,0.69,,2013-08-03 15:32:00,
2013-08-03 10:53:00,74.0,65.0,30.01,NE,43,3.0,6.0,73,0.00,,,0.69,,2013-08-03 15:53:00,
2013-08-03 11:02:00,74.0,65.0,30.00,North,360,3.0,9.0,74,0.00,,,0.69,,2013-08-03 16:02:00,
2013-08-03 11:12:00,74.0,64.0,30.01,NE,38,4.0,7.0,71,0.00,,,0.69,,2013-08-03 16:12:00,
2013-08-03 11:23:00,74.0,64.0,30.01,NE,38,4.0,7.0,71,0.00,,,0.69,,2013-08-03 16:23:00,
2013-08-03 11:33:00,75.0,63.0,30.01,North,11,5.0,8.0,67,0.00,,,0.69,,2013-08-03 16:33:00,
2013-08-03 11:43:00,75.0,62.0,30.01,North,11,4.0,9.0,65,0.00,,,0.69,,2013-08-03 16:43:00,
2013-08-03 11:53:00,75.0,62.0,30.01,North,11,4.0,9.0,65,0.00,,,0.69,,2013-08-03 16:53:00,
2013-08-03 12:03:00,76.0,62.0,30.01,NNE,12,5.0,10.0,63,0.00,,,0.69,,2013-08-03 17:03:00,
2013-08-03 12:12:00,76.0,60.0,30.01,NNE,31,5.0,10.0,58,0.00,,,0.69,,2013-08-03 17:12:00,
2013-08-03 12:22:00,76.0,60.0,30.01,NNE,31,5.0,10.0,58,0.00,,,0.69,,2013-08-03 17:22:00,
2013-08-03 12:32:00,77.0,60.0,30.01,ESE,111,2.0,10.0,55,0.00,,,0.69,,2013-08-03 17:32:00,
2013-08-03 12:52:00,77.0,60.0,30.02,NW,323,5.0,9.0,56,0.00,,,0.69,,2013-08-03 17:52:00,
2013-08-03 13:02:00,77.0,61.0,30.02,NE,40,3.0,7.0,57,0.00,,,0.69,,2013-08-03 18:02:00,
2013-08-03 13:12:00,77.0,60.0,30.02,NNE,19,3.0,9.0,55,0.00,,,0.69,,2013-08-03 18:12:00,
2013-08-03 13:22:00,77.0,60.0,30.02,NNE,19,3.0,9.0,55,0.00,,,0.69,,2013-08-03 18:22:00,
2013-08-03 13:32:00,77.0,59.0,30.02,NNE,28,4.0,8.0,54,0.00,,,0.69,,2013-08-03 18:32:00,
2013-08-03 13:43:00,77.0,59.0,30.02,NNE,28,4.0,8.0,54,0.00,,,0.69,,2013-08-03 18:43:00,
2013-08-03 13:53:00,77.0,56.0,30.02,North,351,4.0,10.0,49,0.00,,,0.69,,2013-08-03 18:53:00,
2013-08-03 14:03:00,78.0,59.0,30.02,NE,41,4.0,10.0,53,0.00,,,0.69,,2013-08-03 19:03:00,
2013-08-03 14:12:00,78.0,59.0,30.02,ENE,60,4.0,11.0,52,0.00,,,0.69,,2013-08-03 19:12:00,
2013-08-03 14:22:00,78.0,59.0,30.02,ENE,60,4.0,11.0,52,0.00,,,0.69,,2013-08-03 19:22:00,
2013-08-03 14:32:00,78.0,58.0,30.02,North,11,4.0,11.0,50,0.00,,,0.69,,2013-08-03 19:32:00,
2013-08-03 14:43:00,78.0,57.0,30.02,NE,46,5.0,11.0,49,0.00,,,0.69,,2013-08-03 19:43:00,
2013-08-03 14:52:00,78.0,57.0,30.02,NE,46,5.0,11.0,49,0.00,,,0.69,,2013-08-03 19:52:00,
2013-08-03 15:02:00,78.0,57.0,30.02,North,355,4.0,10.0,48,0.00,,,0.69,,2013-08-03 20:02:00,
2013-08-03 15:12:00,78.0,57.0,30.02,NE,36,5.0,10.0,49,0.00,,,0.69,,2013-08-03 20:12:00,
2013-08-03 15:22:00,78.0,57.0,30.02,NE,36,5.0,10.0,49,0.00,,,0.69,,2013-08-03 20:22:00,
2013-08-03 15:32:00,78.0,57.0,30.02,ENE,57,5.0,11.0,48,0.00,,,0.69,,2013-08-03 20:32:00,
2013-08-03 15:42:00,78.0,56.0,30.02,NNE,26,6.0,11.0,47,0.00,,,0.69,,2013-08-03 20:42:00,
2013-08-03 15:52:00,78.0,56.0,30.02,NNE,26,6.0,11.0,47,0.00,,,0.69,,2013-08-03 20:52:00,
2013-08-03 16:02:00,78.0,57.0,30.03,NNW,340,3.0,13.0,49,0.00,,,0.69,,2013-08-03 21:02:00,
2013-08-03 16:12:00,78.0,58.0,30.02,North,9,4.0,8.0,51,0.00,,,0.69,,2013-08-03 21:12:00,
2013-08-03 16:22:00,78.0,58.0,30.02,North,9,4.0,8.0,51,0.00,,,0.69,,2013-08-03 21:22:00,
2013-08-03 16:32:00,78.0,58.0,30.02,NE,34,4.0,12.0,50,0.00,,,0.69,,2013-08-03 21:32:00,
2013-08-03 16:42:00,78.0,57.0,30.02,North,11,5.0,9.0,49,0.00,,,0.69,,2013-08-03 21:42:00,
2013-08-03 16:52:00,78.0,57.0,30.02,North,11,5.0,9.0,49,0.00,,,0.69,,2013-08-03 21:52:00,
2013-08-03 17:02:00,78.0,57.0,30.02,NNW,346,4.0,8.0,49,0.00,,,0.69,,2013-08-03 22:02:00,
2013-08-03 17:12:00,78.0,56.0,30.02,NNE,16,4.0,8.0,47,0.00,,,0.69,,2013-08-03 22:12:00,
2013-08-03 17:22:00,78.0,56.0,30.02,NNE,16,4.0,8.0,47,0.00,,,0.69,,2013-08-03 22:22:00,
2013-08-03 17:33:00,78.0,55.0,30.02,NW,324,6.0,12.0,45,0.00,,,0.69,,2013-08-03 22:33:00,
2013-08-03 17:43:00,78.0,56.0,30.02,NNW,348,4.0,8.0,46,0.00,,,0.69,,2013-08-03 22:43:00,
2013-08-03 17:52:00,78.0,56.0,30.02,NNW,348,4.0,8.0,46,0.00,,,0.69,,2013-08-03 22:52:00,
2013-08-03 18:02:00,78.0,56.0,30.03,NNW,343,4.0,8.0,46,0.00,,,0.69,,2013-08-03 23:02:00,
2013-08-03 18:12:00,77.0,56.0,30.03,NE,51,1.0,6.0,48,0.00,,,0.69,,2013-08-03 23:12:00,
2013-08-03 18:22:00,77.0,56.0,30.03,NE,51,1.0,6.0,48,0.00,,,0.69,,2013-08-03 23:22:00,
2013-08-03 18:32:00,78.0,57.0,30.03,North,350,2.0,8.0,48,0.00,,,0.69,,2013-08-03 23:32:00,
2013-08-03 18:43:00,77.0,55.0,30.03,NNE,18,2.0,8.0,47,0.00,,,0.69,,2013-08-03 23:43:00,
2013-08-03 18:52:00,77.0,55.0,30.03,NNE,18,2.0,8.0,47,0.00,,,0.69,,2013-08-03 23:52:00,
2013-08-03 19:02:00,77.0,56.0,30.03,NE,41,3.0,6.0,49,0.00,,,0.69,,2013-08-04 00:02:00,
2013-08-03 19:12:00,76.0,57.0,30.03,NNW,348,0.0,5.0,51,0.00,,,0.69,,2013-08-04 00:12:00,
2013-08-03 19:22:00,76.0,57.0,30.03,NNW,348,0.0,5.0,51,0.00,,,0.69,,2013-08-04 00:22:00,
2013-08-03 19:32:00,75.0,57.0,30.03,NNE,14,0.0,2.0,54,0.00,,,0.69,,2013-08-04 00:32:00,
2013-08-03 19:42:00,75.0,57.0,30.03,NNE,14,0.0,2.0,54,0.00,,,0.69,,2013-08-04 00:42:00,
2013-08-03 19:53:00,75.0,57.0,30.03,NNE,14,0.0,2.0,54,0.00,,,0.69,,2013-08-04 00:53:00,
2013-08-03 20:02:00,75.0,57.0,30.03,NNE,14,0.0,2.0,54,0.00,,,0.69,,2013-08-04 01:02:00,
2013-08-03 20:12:00,72.0,60.0,30.03,NNE,14,0.0,0.0,66,0.00,,,0.69,,2013-08-04 01:12:00,
2013-08-03 20:22:00,72.0,60.0,30.03,NNE,14,0.0,0.0,66,0.00,,,0.69,,2013-08-04 01:22:00,
2013-08-03 20:32:00,71.0,61.0,30.03,NNE,14,0.0,0.0,70,0.00,,,0.69,,2013-08-04 01:32:00,
2013-08-03 20:42:00,68.0,61.0,30.03,NNE,14,0.0,0.0,78,0.00,,,0.69,,2013-08-04 01:42:00,
2013-08-03 20:53:00,68.0,61.0,30.03,NNE,14,0.0,0.0,78,0.00,,,0.69,,2013-08-04 01:53:00,
2013-08-03 21:02:00,68.0,61.0,30.03,NNE,14,0.0,0.0,78,0.00,,,0.69,,2013-08-04 02:02:00,
2013-08-03 21:12:00,67.0,61.0,30.03,NNE,14,0.0,0.0,81,0.00,,,0.69,,2013-08-04 02:12:00,
2013-08-03 21:22:00,67.0,61.0,30.03,NNE,14,0.0,0.0,81,0.00,,,0.69,,2013-08-04 02:22:00,
2013-08-03 21:32:00,67.0,61.0,30.03,NNE,14,0.0,0.0,81,0.00,,,0.69,,2013-08-04 02:32:00,
2013-08-03 21:42:00,67.0,61.0,30.03,NNE,14,0.0,0.0,81,0.00,,,0.69,,2013-08-04 02:42:00,
2013-08-03 21:52:00,64.0,60.0,30.06,NNE,14,0.0,0.0,86,0.00,,,0.08,,2013-08-04 02:52:00,
2013-08-03 22:02:00,64.0,60.0,30.06,NNE,14,0.0,0.0,87,0.00,,,0.08,,2013-08-04 03:02:00,
2013-08-03 22:12:00,64.0,60.0,30.06,NNE,14,0.0,0.0,87,0.00,,,0.08,,2013-08-04 03:12:00,
2013-08-03 22:22:00,64.0,60.0,30.06,NNE,14,0.0,0.0,87,0.00,,,0.08,,2013-08-04 03:22:00,
2013-08-03 22:32:00,63.0,60.0,30.06,NNE,14,0.0,0.0,89,0.00,,,0.08,,2013-08-04 03:32:00,
2013-08-03 22:42:00,63.0,60.0,30.06,NNE,14,0.0,0.0,89,0.00,,,0.08,,2013-08-04 03:42:00,
2013-08-03 22:52:00,63.0,60.0,30.06,NNE,14,0.0,0.0,89,0.00,,,0.08,,2013-08-04 03:52:00,
2013-08-03 23:03:00,63.0,60.0,30.06,NNE,14,0.0,0.0,89,0.00,,,0.08,,2013-08-04 04:03:00,
2013-08-03 23:12:00,63.0,60.0,30.06,NNE,14,0.0,0.0,89,0.00,,,0.08,,2013-08-04 04:12:00,
2013-08-03 23:32:00,62.0,60.0,30.07,NNE,14,0.0,0.0,92,0.00,,,0.02,,2013-08-04 04:32:00,
2013-08-03 23:42:00,62.0,60.0,30.07,NNE,14,0.0,0.0,92,0.00,,,0.02,,2013-08-04 04:42:00,
2013-08-03 23:52:00,62.0,60.0,30.07,NNE,14,0.0,0.0,92,0.00,,,0.02,,2013-08-04 04:52:00,